FW3224 Weather Reports


time (UTC)temp
C
wind
direction
speed
KPH
gust
KPH
rain 1hr
cm
rain 24hr
cm
rain mn
cm
humidity
%
barometer
mb
20260903085050 22 263 6.4 20.9 0.00 0.00 0.00 45 1013.9
20260903084555 22 273 8.0 25.7 0.00 0.00 0.00 45 1013.8
20260903084049 22 227 12.9 25.7 0.00 0.00 0.00 45 1013.7
20260903083547 22 271 11.3 22.5 0.00 0.00 0.00 45 1013.5
20260903083055 22 285 12.9 22.5 0.00 0.00 0.00 45 1013.3
20260903082547 23 273 11.3 20.9 0.00 0.00 0.00 44 1013.2
20260903082047 23 261 11.3 19.3 0.00 0.00 0.00 44 1013.1
20260903081603 23 281 11.3 24.1 0.00 0.00 0.00 43 1012.9
20260903081046 23 260 11.3 24.1 0.00 0.00 0.00 42 1012.8
20260903080544 23 239 9.7 22.5 0.00 0.00 0.00 42 1012.8
20260903080045 23 240 8.0 22.5 0.00 0.00 0.00 42 1012.7
20260903075544 23 282 12.9 22.5 0.00 0.00 0.00 41 1012.7
20260903075044 23 290 6.4 16.1 0.00 0.00 0.00 40 1012.5
20260903074548 23 236 6.4 16.1 0.00 0.00 0.00 40 1012.4
20260903074044 24 274 4.8 16.1 0.00 0.00 0.00 38 1012.2
20260903073544 24 241 4.8 16.1 0.00 0.00 0.00 38 1012.1
20260903073044 24 242 6.4 16.1 0.00 0.00 0.00 37 1012.0
20260903072546 25 211 3.2 16.1 0.00 0.00 0.00 38 1012.0
20260903072044 25 239 3.2 9.7 0.00 0.00 0.00 38 1012.0
20260903071551 25 266 3.2 11.3 0.00 0.00 0.00 37 1012.0
20260903071043 25 250 4.8 11.3 0.00 0.00 0.00 36 1011.9
20260903070545 26 226 3.2 17.7 0.00 0.00 0.00 35 1011.7
20260903070042 26 254 6.4 17.7 0.00 0.00 0.00 35 1011.7
20260903065543 26 246 6.4 17.7 0.00 0.00 0.00 34 1011.5
20260903065042 26 275 9.7 17.7 0.00 0.00 0.00 34 1011.5
20260903064548 26 280 6.4 17.7 0.00 0.00 0.00 34 1011.4
20260903064042 26 302 6.4 17.7 0.00 0.00 0.00 34 1011.3
20260903063541 26 242 6.4 17.7 0.00 0.00 0.00 34 1011.3
20260903063048 27 241 3.2 17.7 0.00 0.00 0.00 34 1011.1
20260903062542 27 268 9.7 17.7 0.00 0.00 0.00 33 1011.1
20260903062042 27 237 6.4 19.3 0.00 0.00 0.00 34 1011.0
20260903061542 27 258 8.0 19.3 0.00 0.00 0.00 33 1011.1
20260903061041 27 231 4.8 16.1 0.00 0.00 0.00 32 1011.1
20260903060541 27 240 4.8 16.1 0.00 0.00 0.00 32 1011.0
20260903060043 27 244 6.4 17.7 0.00 0.00 0.00 33 1011.0
20260903055544 27 229 4.8 17.7 0.00 0.00 0.00 32 1010.9
20260903055040 27 244 3.2 14.5 0.00 0.00 0.00 31 1010.9
20260903054540 27 251 1.6 14.5 0.00 0.00 0.00 31 1010.8
20260903054040 27 231 4.8 14.5 0.00 0.00 0.00 31 1010.7
20260903053539 27 215 6.4 16.1 0.00 0.00 0.00 30 1010.8
20260903053040 27 255 6.4 16.1 0.00 0.00 0.00 30 1010.7
20260903052540 27 200 6.4 14.5 0.00 0.00 0.00 29 1010.6
20260903052040 27 229 6.4 17.7 0.00 0.00 0.00 30 1010.6
20260903051540 27 220 6.4 24.1 0.00 0.00 0.00 30 1010.5
20260903051043 27 277 9.7 24.1 0.00 0.00 0.00 31 1010.5
20260903050539 27 246 11.3 19.3 0.00 0.00 0.00 30 1010.4
20260903050045 27 238 11.3 25.7 0.00 0.00 0.00 30 1010.3
20260903045539 27 217 8.0 25.7 0.00 0.00 0.00 29 1010.3
20260903045041 28 200 6.4 16.1 0.00 0.00 0.00 28 1010.2
20260903044545 28 227 4.8 16.1 0.00 0.00 0.00 29 1010.1
20260903044038 28 168 8.0 22.5 0.00 0.00 0.00 28 1010.1
20260903043539 28 226 6.4 22.5 0.00 0.00 0.00 28 1010.1
20260903043037 28 208 8.0 19.3 0.00 0.00 0.00 28 1010.1
20260903042537 28 234 6.4 17.7 0.00 0.00 0.00 28 1010.1
20260903042037 28 206 6.4 22.5 0.00 0.00 0.00 28 1010.0
20260903041544 28 223 9.7 25.7 0.00 0.00 0.00 28 1009.8
20260903041037 28 167 9.7 24.1 0.00 0.00 0.00 28 1009.7
20260903040535 28 236 6.4 14.5 0.00 0.00 0.00 30 1009.7
20260903040035 28 244 4.8 14.5 0.00 0.00 0.00 30 1009.6
20260903035534 28 191 6.4 16.1 0.00 0.00 0.00 29 1009.6
20260903035034 28 205 6.4 17.7 0.00 0.00 0.00 31 1009.5
20260903034537 28 196 8.0 20.9 0.00 0.00 0.00 31 1009.4
20260903034035 27 244 9.7 35.4 0.00 0.00 0.00 32 1009.4
20260903033533 27 240 14.5 35.4 0.00 0.00 0.00 31 1009.4
20260903033033 27 252 9.7 25.7 0.00 0.00 0.00 32 1009.4
20260903032535 27 256 12.9 24.1 0.00 0.00 0.00 31 1009.5
20260903032032 28 237 14.5 25.7 0.00 0.00 0.00 32 1009.6
20260903031536 28 220 11.3 24.1 0.00 0.00 0.00 31 1009.6
20260903031031 28 238 9.7 19.3 0.00 0.00 0.00 31 1009.6
20260903030530 28 169 8.0 17.7 0.00 0.00 0.00 32 1009.4
20260903030030 28 265 6.4 27.4 0.00 0.00 0.00 33 1009.3
20260903025532 28 235 12.9 27.4 0.00 0.00 0.00 31 1009.2
20260903025028 28 236 9.7 25.7 0.00 0.00 0.00 35 1009.2
20260903024527 28 244 9.7 24.1 0.00 0.00 0.00 35 1009.2
20260903024028 27 154 8.0 25.7 0.00 0.00 0.00 34 1009.2
20260903023530 27 132 8.0 25.7 0.00 0.00 0.00 35 1009.3
20260903023031 28 232 9.7 25.7 0.00 0.00 0.00 35 1009.3
20260903022524 28 248 12.9 30.6 0.00 0.00 0.00 35 1009.4
20260903022023 28 229 12.9 30.6 0.00 0.00 0.00 35 1009.4
20260903021524 27 246 14.5 32.2 0.00 0.00 0.00 36 1009.3
20260903021022 27 247 14.5 32.2 0.00 0.00 0.00 36 1009.2
20260903020523 27 249 11.3 35.4 0.00 0.00 0.00 37 1009.2
20260903020051 27 265 19.3 35.4 0.00 0.00 0.00 37 1009.3
20260903015518 27 246 14.5 32.2 0.00 0.00 0.00 37 1009.3
20260903015017 27 217 12.9 32.2 0.00 0.00 0.00 37 1009.2
20260903014516 27 255 6.4 24.1 0.00 0.00 0.00 39 1009.2
20260903014016 27 209 9.7 24.1 0.00 0.00 0.00 39 1009.2
20260903013514 27 207 9.7 33.8 0.00 0.00 0.00 39 1009.2
20260903013014 27 219 16.1 33.8 0.00 0.00 0.00 39 1009.2
20260903012512 27 250 14.5 30.6 0.00 0.00 0.00 39 1009.2
20260903012012 27 255 8.0 29.0 0.00 0.00 0.00 39 1009.1
20260903011511 27 284 11.3 32.2 0.00 0.00 0.00 40 1009.1
20260903011010 27 234 14.5 32.2 0.00 0.00 0.00 39 1008.9
20260903010511 27 246 16.1 27.4 0.00 0.00 0.00 40 1009.1
20260903010009 26 240 12.9 37.0 0.00 0.00 0.00 40 1009.1
20260903005507 26 293 12.9 37.0 0.00 0.00 0.00 40 1009.1
20260903005011 26 244 16.1 33.8 0.00 0.00 0.00 40 1009.2
20260903004504 26 237 16.1 30.6 0.00 0.00 0.00 40 1009.2
20260903004003 26 224 11.3 41.8 0.00 0.00 0.00 41 1009.2
20260903003501 26 347 24.1 43.5 0.00 0.00 0.00 40 1009.2
20260903003101 26 256 8.0 40.2 0.00 0.00 0.00 42 1009.3
20260903002559 26 269 24.1 46.7 0.00 0.00 0.00 41 1009.3
20260903002058 26 266 24.1 46.7 0.00 0.00 0.00 41 1009.1
20260903001608 25 303 16.1 40.2 0.00 0.00 0.00 42 1009.3
20260903001055 25 275 20.9 48.3 0.00 0.00 0.00 42 1009.2
20260903000554 25 282 25.7 48.3 0.00 0.00 0.00 41 1009.2
20260903000058 25 213 27.4 41.8 0.00 0.00 0.00 42 1009.2
20260902235553 25 225 19.3 37.0 0.00 0.00 0.00 42 1009.3
20260902235051 25 242 19.3 37.0 0.00 0.00 0.00 43 1009.3
20260902234549 25 254 16.1 37.0 0.00 0.00 0.00 43 1009.3
20260902234048 25 245 16.1 40.2 0.00 0.00 0.00 43 1009.3
20260902233548 25 299 25.7 40.2 0.00 0.00 0.00 43 1009.4
20260902233053 25 257 17.7 40.2 0.00 0.00 0.00 44 1009.6
20260902232544 24 301 17.7 43.5 0.00 0.00 0.00 45 1009.7
20260902232043 24 263 22.5 43.5 0.00 0.00 0.00 45 1009.7
20260902231542 23 282 14.5 38.6 0.00 0.00 0.00 48 1009.7
20260902231040 23 255 19.3 38.6 0.00 0.00 0.00 49 1009.7
20260902230538 23 244 8.0 22.5 0.00 0.00 0.00 52 1009.8
20260902230037 22 281 12.9 25.7 0.00 0.00 0.00 51 1009.8
20260902225540 22 320 12.9 27.4 0.00 0.00 0.00 52 1009.7
20260902225037 22 303 12.9 29.0 0.00 0.00 0.00 52 1009.7
20260902224534 22 279 9.7 29.0 0.00 0.00 0.00 53 1009.7
20260902224034 22 248 12.9 22.5 0.00 0.00 0.00 53 1009.8
20260902223531 21 278 8.0 24.1 0.00 0.00 0.00 53 1009.9
20260902223030 21 293 9.7 24.1 0.00 0.00 0.00 54 1009.9
20260902222531 21 242 9.7 20.9 0.00 0.00 0.00 54 1010.0
20260902222031 21 260 11.3 24.1 0.00 0.00 0.00 54 1010.0
20260902221542 21 273 9.7 24.1 0.00 0.00 0.00 55 1010.1
20260902221030 21 286 12.9 29.0 0.00 0.00 0.00 55 1010.2
20260902220526 21 257 9.7 29.0 0.00 0.00 0.00 56 1010.2
20260902220026 20 281 9.7 19.3 0.00 0.00 0.00 58 1010.2
20260902215528 20 277 8.0 17.7 0.00 0.00 0.00 60 1010.4
20260902215026 20 248 8.0 19.3 0.00 0.00 0.00 61 1010.3
20260902214526 19 283 9.7 19.3 0.00 0.00 0.00 63 1010.2
20260902214025 18 254 6.4 17.7 0.00 0.00 0.00 65 1010.2
20260902213525 18 246 6.4 17.7 0.00 0.00 0.00 66 1010.1
20260902213024 18 286 6.4 16.1 0.00 0.00 0.00 68 1010.1
20260902212524 17 264 4.8 11.3 0.00 0.00 0.00 69 1010.1
20260902212024 17 279 3.2 11.3 0.00 0.00 0.00 69 1010.0
20260902211523 17 271 3.2 9.7 0.00 0.00 0.00 69 1010.1
20260902211023 17 269 3.2 11.3 0.00 0.00 0.00 69 1010.0
20260902210522 17 242 3.2 11.3 0.00 0.00 0.00 69 1010.0
20260902210022 17 275 3.2 12.9 0.00 0.00 0.00 69 1010.0
20260902205520 17 328 3.2 9.7 0.00 0.00 0.00 69 1010.0
20260902205022 17 262 3.2 9.7 0.00 0.00 0.00 68 1009.9
20260902204519 17 296 3.2 8.0 0.00 0.00 0.00 68 1010.0
20260902204022 17 284 3.2 9.7 0.00 0.00 0.00 67 1009.9
20260902203519 17 261 3.2 12.9 0.00 0.00 0.00 67 1010.0
20260902203019 17 298 1.6 12.9 0.00 0.00 0.00 67 1009.9
20260902202518 17 262 4.8 14.5 0.00 0.00 0.00 67 1010.0
20260902202017 17 282 4.8 14.5 0.00 0.00 0.00 67 1010.0
20260902201517 17 288 3.2 11.3 0.00 0.00 0.00 67 1010.1
20260902201024 17 310 4.8 9.7 0.00 0.00 0.00 68 1010.0
20260902200515 17 22 3.2 8.0 0.00 0.00 0.00 67 1010.1
20260902200015 17 327 3.2 11.3 0.00 0.00 0.00 67 1010.1
20260902195519 17 221 3.2 12.9 0.00 0.00 0.00 68 1010.2
20260902195014 17 335 3.2 12.9 0.00 0.00 0.00 68 1010.2
20260902194525 17 318 1.6 12.9 0.00 0.00 0.00 68 1010.1
20260902194013 17 198 3.2 12.9 0.00 0.00 0.00 68 1010.2
20260902193513 17 297 6.4 12.9 0.00 0.00 0.00 67 1010.3
20260902193012 18 269 1.6 12.9 0.00 0.00 0.00 67 1010.3
20260902192511 18 313 4.8 12.9 0.00 0.00 0.00 67 1010.3
20260902192010 18 288 4.8 12.9 0.00 0.00 0.00 66 1010.3
20260902191515 18 319 6.4 14.5 0.00 0.00 0.00 66 1010.1
20260902191008 18 299 4.8 14.5 0.00 0.00 0.00 64 1010.1
20260902190507 18 289 4.8 12.9 0.00 0.00 0.00 63 1010.1
20260902190006 18 280 6.4 12.9 0.00 0.00 0.00 63 1010.3
20260902185505 18 265 6.4 17.7 0.00 0.00 0.00 62 1010.3
20260902185005 19 300 6.4 17.7 0.00 0.00 0.00 62 1010.2
20260902184504 19 232 4.8 12.9 0.00 0.00 0.00 62 1010.3
20260902184006 19 254 6.4 17.7 0.00 0.00 0.00 62 1010.4
20260902183503 19 262 6.4 16.1 0.00 0.00 0.00 62 1010.3
20260902183003 19 271 4.8 16.1 0.00 0.00 0.00 62 1010.5
20260902182503 19 254 6.4 14.5 0.00 0.00 0.00 62 1010.4
20260902182002 19 257 4.8 12.9 0.00 0.00 0.00 62 1010.5
20260902181609 19 236 6.4 12.9 0.00 0.00 0.00 61 1010.6
20260902181100 19 276 4.8 12.9 0.00 0.00 0.00 61 1010.5
20260902180559 20 271 4.8 12.9 0.00 0.00 0.00 60 1010.6
20260902180058 20 285 4.8 24.1 0.00 0.00 0.00 59 1010.6
20260902175556 20 246 9.7 24.1 0.00 0.00 0.00 59 1010.7
20260902175057 20 261 9.7 27.4 0.00 0.00 0.00 59 1010.9
20260902174555 20 281 12.9 27.4 0.00 0.00 0.00 59 1010.9
20260902174057 20 284 11.3 24.1 0.00 0.00 0.00 59 1010.8
20260902173554 20 277 9.7 22.5 0.00 0.00 0.00 59 1010.8
20260902173056 20 272 11.3 20.9 0.00 0.00 0.00 59 1010.9
20260902172553 20 242 12.9 22.5 0.00 0.00 0.00 59 1011.1
20260902172054 20 296 11.3 22.5 0.00 0.00 0.00 59 1011.1
20260902171605 20 265 11.3 29.0 0.00 0.00 0.00 59 1011.2
20260902171053 20 223 16.1 29.0 0.00 0.00 0.00 59 1011.3
20260902170549 20 267 14.5 27.4 0.00 0.00 0.00 59 1011.4
20260902170049 20 281 16.1 27.4 0.00 0.00 0.00 59 1011.5
20260902165547 20 266 12.9 24.1 0.00 0.00 0.00 58 1011.3
20260902165046 20 239 12.9 24.1 0.00 0.00 0.00 58 1011.5
20260902164558 20 232 11.3 29.0 0.00 0.00 0.00 58 1011.5
20260902164045 20 292 16.1 29.0 0.00 0.00 0.00 58 1011.6
20260902163545 20 260 12.9 22.5 0.00 0.00 0.00 58 1011.5
20260902163044 20 240 12.9 22.5 0.00 0.00 0.00 58 1011.5
20260902162543 20 250 8.0 33.8 0.00 0.00 0.00 57 1011.6
20260902162043 20 235 12.9 33.8 0.00 0.00 0.00 56 1011.7
20260902161546 20 257 11.3 25.7 0.00 0.00 0.00 56 1011.7
20260902161042 21 299 8.0 25.7 0.00 0.00 0.00 56 1011.7
20260902160540 21 313 11.3 27.4 0.00 0.00 0.00 56 1011.9
20260902160046 20 267 12.9 25.7 0.00 0.00 0.00 56 1012.2
20260902155538 20 240 9.7 19.3 0.00 0.00 0.00 56 1012.3
20260902155038 20 246 6.4 17.7 0.00 0.00 0.00 55 1012.2
20260902154550 20 273 6.4 12.9 0.00 0.00 0.00 55 1012.3
20260902154038 20 313 4.8 9.7 0.00 0.00 0.00 54 1012.3
20260902153534 20 324 4.8 16.1 0.00 0.00 0.00 54 1012.6
20260902153036 20 295 4.8 19.3 0.00 0.00 0.00 53 1012.7
20260902152532 20 243 8.0 19.3 0.00 0.00 0.00 53 1012.9
20260902152036 20 266 9.7 17.7 0.00 0.00 0.00 53 1012.9
20260902151537 20 259 6.4 17.7 0.00 0.00 0.00 53 1012.9
20260902151030 20 273 9.7 30.6 0.00 0.00 0.00 53 1013.1
20260902150530 20 269 9.7 30.6 0.00 0.00 0.00 53 1013.0
20260902150030 20 259 9.7 17.7 0.00 0.00 0.00 53 1013.0
20260902145529 20 290 6.4 20.9 0.00 0.00 0.00 53 1013.1
20260902145031 20 275 9.7 24.1 0.00 0.00 0.00 53 1013.1
20260902144529 20 277 9.7 24.1 0.00 0.00 0.00 53 1013.1
20260902144028 20 291 9.7 17.7 0.00 0.00 0.00 53 1013.1
20260902143527 20 294 8.0 17.7 0.00 0.00 0.00 53 1013.1
20260902143127 20 282 8.0 17.7 0.00 0.00 0.00 53 1013.1
20260902142526 20 257 8.0 19.3 0.00 0.00 0.00 52 1013.2
20260902142025 20 294 9.7 19.3 0.00 0.00 0.00 52 1013.2
20260902141533 20 263 9.7 17.7 0.00 0.00 0.00 52 1013.2
20260902141024 20 292 9.7 22.5 0.00 0.00 0.00 52 1013.3
20260902140523 20 278 9.7 22.5 0.00 0.00 0.00 53 1013.2
20260902140021 20 254 9.7 20.9 0.00 0.00 0.00 53 1013.2
20260902135521 20 295 8.0 17.7 0.00 0.00 0.00 53 1013.2
20260902135021 20 281 9.7 20.9 0.00 0.00 0.00 54 1013.3
20260902134522 20 274 8.0 20.9 0.00 0.00 0.00 55 1013.4
20260902134021 19 235 4.8 14.5 0.00 0.00 0.00 56 1013.4
20260902133529 19 284 4.8 14.5 0.00 0.00 0.00 56 1013.5
20260902133021 18 267 4.8 14.5 0.00 0.00 0.00 56 1013.5
20260902132524 19 303 4.8 14.5 0.00 0.00 0.00 55 1013.5
20260902132020 19 267 3.2 12.9 0.00 0.00 0.00 55 1013.4
20260902131520 19 308 3.2 9.7 0.00 0.00 0.00 54 1013.4
20260902131020 19 294 3.2 8.0 0.00 0.00 0.00 54 1013.5
20260902130519 19 289 1.6 12.9 0.00 0.00 0.00 53 1013.5
20260902130030 20 275 3.2 12.9 0.00 0.00 0.00 52 1013.6
20260902125521 20 275 3.2 9.7 0.00 0.00 0.00 52 1013.7
20260902125019 20 294 3.2 4.8 0.00 0.00 0.00 52 1013.6
20260902124519 20 288 3.2 4.8 0.00 0.00 0.00 51 1013.6
20260902124019 20 286 3.2 6.4 0.00 0.00 0.00 50 1013.7
20260902123519 21 252 1.6 8.0 0.00 0.00 0.00 49 1013.7
20260902123027 21 272 3.2 9.7 0.00 0.00 0.00 48 1013.7
20260902122519 21 266 3.2 11.3 0.00 0.00 0.00 47 1013.8
20260902122018 22 267 4.8 11.3 0.00 0.00 0.00 46 1013.9
20260902121519 22 252 4.8 11.3 0.00 0.00 0.00 46 1014.0
20260902121021 22 279 4.8 17.7 0.00 0.00 0.00 46 1014.1
20260902120519 22 286 4.8 20.9 0.00 0.00 0.00 46 1014.1
20260902120017 22 263 4.8 12.9 0.00 0.00 0.00 46 1014.1
20260902115517 22 239 4.8 14.5 0.00 0.00 0.00 45 1014.1
20260902115017 22 266 4.8 14.5 0.00 0.00 0.00 45 1014.2
20260902114524 22 267 4.8 12.9 0.00 0.00 0.00 45 1014.2
20260902114017 22 254 6.4 12.9 0.00 0.00 0.00 45 1014.2
20260902113516 22 275 4.8 14.5 0.00 0.00 0.00 44 1014.2
20260902113016 22 284 4.8 14.5 0.00 0.00 0.00 44 1014.2
20260902112516 22 271 6.4 16.1 0.00 0.00 0.00 43 1014.2
20260902112017 22 263 4.8 16.1 0.00 0.00 0.00 43 1014.2
20260902111518 22 270 6.4 16.1 0.00 0.00 0.00 43 1014.2
20260902111017 23 283 8.0 19.3 0.00 0.00 0.00 43 1014.2
20260902110515 23 262 9.7 19.3 0.00 0.00 0.00 42 1014.1
20260902110015 23 269 11.3 19.3 0.00 0.00 0.00 42 1014.1
20260902105515 23 282 9.7 27.4 0.00 0.00 0.00 42 1014.2
20260902105019 23 264 14.5 27.4 0.00 0.00 0.00 42 1014.2
20260902104521 23 249 12.9 20.9 0.00 0.00 0.00 43 1014.1
20260902104015 23 306 9.7 19.3 0.00 0.00 0.00 43 1014.1
20260902103514 23 300 9.7 19.3 0.00 0.00 0.00 44 1014.2
20260902103014 23 219 9.7 19.3 0.00 0.00 0.00 44 1014.2
20260902102514 23 233 6.4 17.7 0.00 0.00 0.00 44 1014.1
20260902102015 23 258 8.0 19.3 0.00 0.00 0.00 44 1014.1
20260902101513 23 280 11.3 20.9 0.00 0.00 0.00 44 1014.1
20260902101013 23 271 8.0 20.9 0.00 0.00 0.00 44 1014.0
20260902100513 23 276 8.0 16.1 0.00 0.00 0.00 44 1013.8
20260902100013 23 271 8.0 16.1 0.00 0.00 0.00 45 1013.7
20260902095512 22 245 8.0 14.5 0.00 0.00 0.00 45 1013.7
20260902095011 23 258 4.8 14.5 0.00 0.00 0.00 45 1013.8
20260902094512 22 236 6.4 12.9 0.00 0.00 0.00 45 1013.9
20260902094012 22 269 6.4 12.9 0.00 0.00 0.00 45 1013.7
20260902093511 22 283 4.8 9.7 0.00 0.00 0.00 46 1013.7
20260902093112 22 276 4.8 11.3 0.00 0.00 0.00 46 1013.6
20260902092511 22 279 4.8 12.9 0.00 0.00 0.00 47 1013.6
20260902092015 22 269 4.8 11.3 0.00 0.00 0.00 47 1013.5
20260902091511 22 226 4.8 14.5 0.00 0.00 0.00 49 1013.5
20260902091014 22 262 6.4 14.5 0.00 0.00 0.00 49 1013.3
20260902090510 22 232 6.4 12.9 0.00 0.00 0.00 52 1013.3
20260902090012 22 282 6.4 11.3 0.00 0.00 0.00 53 1013.3
20260902085511 22 285 4.8 11.3 0.00 0.00 0.00 53 1013.3